Location: Gradi�?e
(46.0500°N, 14.8667°E)
Time: 09:59:36
(UTC+00:00)

Daily predictions for brighter satellites

Satellite Brightness Start Highest point End
(mag) Time Altitude Azimuth Time Altitude Azimuth Time Altitude Azimuth
Cosmos 2154 Rocket 4.5 17:09:43 10° SSE 17:15:18 37° E 17:20:54 10° NNE
ERS-2 3.2 17:12:28 10° NE 17:15:34 25° E 17:18:36 10° SSE
Cosmos 2074 Rocket 4.1 17:10:12 10° S 17:16:18 57° E 17:22:24 10° NNE
Cosmos 2360 Rocket 3.4 17:13:02 10° SSE 17:17:08 21° E 17:21:16 10° NE
Sich 1 3.1 17:15:15 10° S 17:19:38 88° E 17:24:04 10° N
Cosmos 1602 4.2 17:18:43 10° SSE 17:22:19 38° E 17:25:59 10° NNE
YAOGAN 1 2.6 17:21:57 10° SSE 17:26:11 58° ENE 17:30:26 10° N
Cosmos 1437 3.1 17:25:14 10° NNW 17:28:06 59° W 17:30:56 10° S
GP-B 4.2 17:25:54 10° SE 17:29:21 23° ENE 17:32:48 10° NNE
CZ-2D R/B 4.1 17:26:30 10° S 17:30:14 56° W 17:34:00 10° NNW
Cosmos 1461 3.3 17:26:10 10° SW 17:30:54 86° WNW 17:35:40 10° NE
COSMO-SKYMED 1 3.0 17:27:31 10° N 17:31:51 67° WNW 17:36:09 10° SSW
FALCON 9 DEB 4.2 17:28:58 10° NW 17:32:07 32° NNE 17:34:54 12° E
Cosmos 1980 Rocket 3.4 17:27:20 10° SW 17:32:44 44° NW 17:38:12 10° NNE
Cosmos 1500 4.2 17:31:25 10° SE 17:34:26 24° E 17:37:29 10° NE
Cosmos 2184 Rocket 3.9 17:29:33 10° S 17:35:41 76° E 17:41:54 10° NNE
Helios 1A Rocket 3.1 17:36:22 10° SE 17:40:16 47° ENE 17:44:11 10° N
Abrixas rocket 1.6 17:38:47 10° W 17:41:17 69° NNW 17:43:03 17° ENE
Ariane Rocket 4.3 17:39:16 12° ESE 17:42:29 20° ENE 17:46:06 10° NNE
HJ-1C 3.5 17:39:19 10° SSE 17:42:33 52° ENE 17:45:48 10° N
Meteor 1-25 Rocket 4.3 17:40:07 10° S 17:45:53 85° E 17:51:37 10° NNE
Cosmos 2322 Rocket 2.2 17:40:26 10° S 17:45:56 61° ESE 17:51:29 10° NNE
Cosmos 1633 Rocket 3.0 17:41:55 10° S 17:46:20 86° E 17:50:47 10° N
Cosmos 1707 Rocket 4.2 17:42:42 10° NNW 17:47:03 60° W 17:51:19 10° S
Cosmos 44 Rocket 3.4 17:41:49 10° NNW 17:47:05 74° NE 17:52:16 10° SE
Meteor 1-14 Rocket 4.4 17:44:45 10° SSE 17:50:03 47° E 17:55:20 10° NNE
Okean 1-7 4.0 17:47:32 10° NNE 17:51:19 27° ENE 17:54:31 13° SE
CZ-4B R/B 3.3 17:51:29 10° N 17:54:11 29° WNW 17:56:55 10° SW
SJ-6B 4.1 17:52:51 17° ESE 17:54:45 24° ENE 17:58:01 10° NNE
USA 186 3.4 17:59:43 13° NNE 17:59:43 13° NNE 18:00:09 10° NNE
Meteor 1-18 Rocket 4.3 17:55:44 10° N 18:01:43 84° E 18:07:37 10° SSE
Okean-O 3.2 17:59:50 10° S 18:04:12 61° WSW 18:08:37 10° NNW
Cosmos 2219 Rocket 3.5 18:01:11 10° SE 18:04:10 19° ESE 18:04:10 19° ESE
Okean 1 3.5 18:02:03 10° NNW 18:06:05 76° W 18:10:06 10° S
CZ-4 R/B 2.7 18:03:53 10° S 18:07:31 40° W 18:11:14 10° NNW
Cosmos 2341 Rocket 4.2 18:03:00 10° SSE 18:09:02 50° E 18:15:04 10° NNE
SL-16 R/B 2.5 18:04:07 10° SSW 18:09:47 73° WNW 18:15:29 10° NNE
USA 305 4.4 18:06:42 10° WNW 18:10:28 29° N 18:13:17 15° NE
Cosmos 2263 Rocket 4.0 18:07:30 10° NW 18:12:23 32° WSW 18:17:15 10° SSW
MetOp-A 4.3 18:07:49 10° SE 18:12:59 52° ENE 18:18:10 10° N
ERBS 3.9 18:11:41 10° W 18:14:40 30° NNW 18:17:00 14° NNE
ARGOS 3.5 18:09:32 10° S 18:14:56 70° WSW 18:20:23 10° NNW
Gbstr 26 Del rocket 4.1 18:15:19 10° W 18:19:41 46° N 18:23:00 21° ENE
USA 307 4.4 18:17:34 10° WNW 18:21:20 29° N 18:23:39 18° NE
Cosmos 2322 4.3 18:16:21 10° SSE 18:21:24 34° ESE 18:26:29 10° NE
ATLAS CENTAUR R/B 1.0 18:18:43 10° SSW 18:22:16 59° ESE 18:23:28 37° ENE
Cosmos 2084 Rocket 3.6 18:18:59 10° NW 18:23:20 78° SW 18:26:12 22° SSE
SL-4 R/B 2.5 18:21:00 10° WNW 18:24:17 36° N 18:25:01 32° NE
Cosmos 1470 Rocket 4.0 18:20:05 10° SSW 18:24:32 67° W 18:28:59 10° N
SL-08 RB Rocket 3.9 18:20:22 10° S 18:24:51 72° WSW 18:29:26 10° NNW
USA 306 4.4 18:21:29 10° WNW 18:25:12 28° N 18:27:19 19° NE
CZ-2C R/B 2.7 18:21:11 10° NNE 18:26:44 85° WNW 18:32:06 10° SSW
Cosmos 2237 4.1 18:21:20 10° SSW 18:27:03 85° ESE 18:32:50 10° NNE
Cosmos 1689 Rocket 4.1 18:25:21 10° N 18:27:55 30° WNW 18:30:29 10° SW
Cosmos 2218 Rocket 4.2 18:23:10 10° SSE 18:29:13 47° E 18:35:18 10° NNE
USA 308 4.4 18:28:14 10° WNW 18:31:57 28° N 18:33:47 21° NE
Cosmos 1992 Rocket 4.4 18:28:22 10° SSW 18:33:34 66° WNW 18:38:47 10° NNE
Okean 3 4.1 18:31:03 10° N 18:34:28 36° NE 18:34:28 36° NE
ASTEX 1 3.6 18:30:35 10° NNE 18:35:15 43° E 18:36:25 37° SE
Cosmos 1703 Rocket 3.4 18:32:43 10° N 18:37:09 85° E 18:40:23 18° S
H-2A R/B 4.0 18:34:04 10° SSW 18:38:52 31° W 18:43:42 10° NNW
DMSP B5D2-2 4.0 18:36:32 10° NNE 18:41:48 86° ESE 18:47:01 10° SSW
USA 234 3.2 18:36:59 19° NE 18:41:56 75° SE 18:48:28 10° SW
SeaSat 1 3.1 18:39:53 10° NNE 18:44:44 56° WNW 18:49:33 10° SW
Cosmos 1933 Rocket 4.1 18:41:16 10° SSW 18:45:34 60° WNW 18:49:55 10° N
OBJECT-B 2.1 18:47:22 31° N 18:47:22 31° N 18:49:13 10° N
Aureole 2 Rocket 3.9 18:44:49 10° NW 18:46:56 23° WSW 18:47:11 23° WSW
Resurs 01 Rocket 3.1 18:49:22 24° NNE 18:49:22 24° NNE 18:51:39 10° N
Cosmos 1844 Rocket 2.8 18:42:38 10° NNW 18:48:13 76° WSW 18:51:49 23° SSE
BREEZE-M DEB (TANK) 4.5 18:28:00 10° W 18:48:28 89° S 18:50:58 40° E
Cosmos 864 Rocket 4.4 18:42:33 10° S 18:48:34 60° E 18:54:40 10° NNE
ERS-2 4.5 18:45:59 10° N 18:49:01 25° WNW 18:52:02 10° WSW
Meteor 1-5 Rocket 4.1 18:44:13 10° S 18:49:33 85° W 18:55:06 10° N
Cosmos 2242 Rocket 4.0 18:45:49 10° NNW 18:50:17 63° W 18:54:41 10° S
Cosmos 1666 2.5 18:47:25 10° S 18:51:07 85° W 18:54:52 10° N
Cosmos 2333 4.1 18:46:15 10° SSW 18:51:49 64° ESE 18:57:28 10° NNE
Cosmos 1959 Rocket 4.3 18:48:00 10° S 18:54:01 68° E 19:00:06 10° NNE
Cosmos 1844 3.8 18:51:00 10° NNW 18:56:48 79° WSW 18:59:37 31° SSE
Cosmos 2360 Rocket 2.6 18:55:01 10° SW 19:00:36 64° WNW 19:06:16 10° NNE
Cosmos 2278 Rocket 3.1 18:57:53 10° N 19:02:28 31° NE 19:02:28 31° NE
Cosmos 2333 Rocket 2.1 19:01:33 10° SSW 19:07:10 68° ESE 19:08:25 52° NE
SPOT 3 Rocket 3.9 19:08:58 49° NE 19:08:58 49° NE 19:13:20 10° N
Cosmos 1241 Rocket 4.4 19:03:33 10° NW 19:10:11 85° NE 19:11:50 54° SE
Cosmos 1777 Rocket 3.9 19:08:00 10° NNW 19:13:16 85° WSW 19:13:54 69° S
Resurs 1-3 4.0 19:17:59 57° NNW 19:17:59 57° NNW 19:21:32 10° NNW
Ariane Rocket 3.3 19:19:27 43° SSW 19:20:57 63° WSW 19:26:03 10° NNW
Cosmos 1943 Rocket 4.4 19:23:58 10° N 19:25:32 12° NNE 19:25:32 12° NNE
SJ 16-02 3.0 19:22:30 10° N 19:24:29 25° N 19:24:29 25° N
SJ-6B 4.5 19:28:27 30° WSW 19:29:14 33° W 19:32:57 10° NNW
Cosmos 2322 Rocket 4.2 19:25:48 10° WSW 19:30:25 26° NW 19:35:04 10° N
Meteor 1-11 Rocket 4.1 19:31:19 10° SSW 19:36:59 62° WNW 19:42:34 10° N
Meteor 1-23 Rocket 4.3 19:33:05 10° NNW 19:38:05 71° NNW 19:38:05 71° NNW
Cosmos 2219 Rocket 3.2 19:42:48 10° SW 19:56:15 - NNE 19:46:09 37° SW
ATLAS CENTAUR R/B 4.2 19:58:58 10° W 19:59:42 13° WNW 19:59:42 13° WNW
Resurs 01 Rocket 4.3 20:26:55 17° NW 20:26:55 17° NW 20:28:08 10° NW
USA 234 3.9 20:24:20 47° N 20:24:44 48° NNW 20:30:56 10° W
Cosmos 2278 Rocket 4.1 20:41:48 10° NW 20:44:20 26° NW 20:44:20 26° NW
Cosmos 2333 Rocket 4.3 20:47:23 10° W 20:56:43 10° N 20:50:49 23° WNW
